EA5CH Weather Reports


time (UTC)temp
C
wind
direction
speed
KPH
gust
KPH
rain 1hr
cm
rain 24hr
cm
rain mn
cm
humidity
%
barometer
mb
20260502203518 18 45 6.4 14.5 0.00 0.00 0.00 85 1018.5
20260502202519 18 45 4.8 12.9 0.00 0.00 0.00 86 1018.4
20260502201519 18 68 4.8 12.9 0.00 0.00 0.00 87 1018.3
20260502200519 18 68 6.4 19.3 0.00 0.00 0.00 87 1018.2
20260502195519 18 225 8.0 19.3 0.00 0.00 0.00 87 1018.0
20260502194519 18 90 8.0 17.7 0.00 0.00 0.00 87 1018.2
20260502193518 18 68 6.4 14.5 0.00 0.00 0.00 89 1018.3
20260502192519 18 68 8.0 17.7 0.00 0.00 0.00 89 1018.0
20260502191519 18 90 8.0 20.9 0.00 0.00 0.00 89 1017.9
20260502190539 18 225 4.8 16.1 0.00 0.00 0.00 88 1017.9
20260502185519 18 225 4.8 11.3 0.00 0.00 0.00 88 1018.0
20260502184519 18 113 3.2 11.3 0.00 0.00 0.00 89 1018.2
20260502183519 18 225 4.8 14.5 0.00 0.00 0.00 89 1018.0
20260502182519 18 90 3.2 11.3 0.00 0.00 0.00 89 1018.3
20260502181518 18 90 4.8 16.1 0.00 0.00 0.00 89 1018.2
20260502180539 18 90 4.8 14.5 0.00 0.00 0.00 89 1018.3
20260502170518 18 68 6.4 17.7 0.00 0.00 0.00 87 1018.5
20260502163519 19 135 3.2 11.3 0.00 0.00 0.00 86 1019.0
20260502162519 19 90 6.4 12.9 0.00 0.00 0.00 85 1019.0
20260502161539 20 135 4.8 12.9 0.00 0.00 0.00 84 1019.3
20260502160539 20 293 3.2 11.3 0.00 0.00 0.00 84 1019.4
20260502151519 21 225 3.2 8.0 0.00 0.00 0.00 82 1019.7
20260502150518 20 90 4.8 9.7 0.00 0.00 0.00 81 1019.9
20260502130519 20 225 6.4 19.3 0.00 0.00 0.00 85 1020.6
20260502123519 20 90 6.4 14.5 0.00 0.00 0.00 84 1021.4
20260502122519 20 90 6.4 17.7 0.00 0.00 0.00 84 1021.4
20260502121519 20 135 4.8 11.3 0.00 0.00 0.00 84 1021.5
20260502120519 20 90 6.4 16.1 0.00 0.00 0.00 83 1021.5
20260502115519 20 113 6.4 12.9 0.00 0.00 0.00 83 1021.5
20260502114519 21 113 6.4 17.7 0.00 0.00 0.00 82 1021.5
20260502113537 20 90 6.4 14.5 0.00 0.00 0.00 83 1021.6
20260502112519 20 45 6.4 14.5 0.00 0.00 0.00 84 1021.6
20260502111519 20 158 4.8 11.3 0.00 0.00 0.00 84 1021.8
20260502110519 20 135 4.8 14.5 0.00 0.00 0.00 84 1021.9
20260502105519 20 90 8.0 16.1 0.00 0.00 0.00 84 1022.0
20260502104519 20 45 8.0 17.7 0.00 0.00 0.00 84 1022.1
20260502103519 20 113 8.0 17.7 0.00 0.00 0.00 83 1022.1
20260502102517 20 113 8.0 17.7 0.00 0.00 0.00 83 1022.1
20260502101519 20 90 8.0 17.7 0.00 0.00 0.00 82 1022.1
20260502100519 20 68 8.0 20.9 0.00 0.00 0.00 83 1022.0
20260502091519 20 113 6.4 14.5 0.00 0.00 0.00 79 1022.2
20260502090519 21 113 4.8 11.3 0.00 0.00 0.00 79 1022.3
20260502071519 20 0.0 1.6 0.00 0.00 0.00 79 1022.3
20260502070519 20 0.0 3.2 0.00 0.00 0.00 80 1022.2
20260502065519 19 0.0 3.2 0.00 0.00 0.00 81 1022.2
20260502064539 19 0.0 1.6 0.00 0.00 0.00 81 1022.2
20260502063519 19 0.0 0.0 0.00 0.00 0.00 82 1022.3
20260502062519 18 0.0 0.0 0.00 0.00 0.00 82 1022.3
20260502061519 18 0.0 0.0 0.00 0.00 0.00 82 1022.3
20260502060519 18 0.0 0.0 0.00 0.00 0.00 82 1022.3
20260502055519 18 0.0 0.0 0.00 0.00 0.00 82 1022.2
20260502054519 18 0.0 0.0 0.00 0.00 0.00 82 1022.3
20260502053519 17 0.0 0.0 0.00 0.00 0.00 82 1022.2
20260502052519 17 0.0 0.0 0.00 0.00 0.00 83 1022.0
20260502051519 17 0.0 0.0 0.00 0.00 0.00 83 1021.8
20260502050519 17 0.0 0.0 0.00 0.00 0.00 83 1021.7
20260502045519 17 0.0 0.0 0.00 0.00 0.00 83 1021.7
20260502044539 17 0.0 0.0 0.00 0.00 0.00 83 1021.7
20260502043519 17 0.0 0.0 0.00 0.00 0.00 83 1021.7
20260502042519 17 0.0 0.0 0.00 0.00 0.00 83 1021.8
20260502041519 18 0.0 0.0 0.00 0.00 0.00 83 1021.9
20260502040519 17 0.0 0.0 0.00 0.00 0.00 83 1022.0
20260502035539 17 0.0 1.6 0.00 0.00 0.00 84 1022.0
20260502034519 17 270 3.2 6.4 0.00 0.00 0.00 86 1022.2
20260502033539 17 225 1.6 6.4 0.00 0.00 0.00 87 1022.2
20260502032519 17 0.0 3.2 0.00 0.00 0.00 87 1022.1
20260502031520 17 0.0 1.6 0.00 0.00 0.00 86 1022.1
20260502030519 17 0.0 0.0 0.00 0.00 0.00 87 1022.2
20260502025519 17 0.0 3.2 0.00 0.00 0.00 88 1022.1
20260502024517 17 45 1.6 3.2 0.00 0.00 0.00 87 1022.1
20260502023519 17 45 1.6 3.2 0.00 0.00 0.00 88 1022.0
20260502022519 17 45 1.6 3.2 0.00 0.00 0.00 88 1022.2
20260502021539 17 45 1.6 3.2 0.00 0.00 0.00 88 1022.3
20260502020519 17 0.0 1.6 0.00 0.00 0.00 86 1022.3
20260502015539 17 45 1.6 4.8 0.00 0.00 0.00 85 1022.3
20260502014519 17 0.0 0.0 0.00 0.00 0.00 85 1022.4
20260502013524 17 0.0 0.0 0.00 0.00 0.00 85 1022.5
20260502012519 17 293 1.6 4.8 0.00 0.00 0.00 86 1022.6
20260502011519 17 293 1.6 4.8 0.00 0.00 0.00 88 1022.7
20260502010519 17 293 1.6 6.4 0.00 0.00 0.00 89 1022.8
20260502005519 16 293 4.8 9.7 0.00 0.00 0.00 89 1022.8
20260502004519 16 270 3.2 4.8 0.00 0.00 0.00 90 1022.9
20260502003519 16 270 3.2 8.0 0.00 0.00 0.00 90 1023.0
20260502002519 17 293 3.2 4.8 0.00 0.00 0.00 90 1023.1
20260502001519 16 270 3.2 4.8 0.00 0.00 0.00 90 1023.3
20260502000519 16 270 3.2 4.8 0.00 0.00 0.00 90 1023.4
20260501235519 16 270 1.6 4.8 0.00 0.00 0.00 90 1023.4
20260501234519 17 248 1.6 3.2 0.00 0.00 0.00 89 1023.5
20260501233517 17 0.0 3.2 0.00 0.00 0.00 89 1023.5
20260501232519 17 293 1.6 3.2 0.00 0.00 0.00 89 1023.6
20260501231519 17 293 1.6 1.6 0.00 0.00 0.00 90 1023.6
20260501230517 17 0.0 0.0 0.00 0.00 0.00 89 1023.5
20260501225519 17 0.0 1.6 0.00 0.00 0.00 88 1023.5
20260501224539 17 0.0 1.6 0.00 0.00 0.00 88 1023.5
20260501223539 17 0.0 0.0 0.00 0.00 0.00 88 1023.6
20260501222519 17 0.0 0.0 0.00 0.00 0.00 88 1023.6
20260501221519 18 0.0 1.6 0.00 0.00 0.00 87 1023.5
20260501220519 18 0.0 0.0 0.00 0.00 0.00 88 1023.6
20260501215519 18 0.0 0.0 0.00 0.00 0.00 88 1023.6
20260501214519 18 0.0 0.0 0.00 0.00 0.00 88 1023.8
20260501213519 18 0.0 1.6 0.00 0.00 0.00 88 1023.7
20260501212519 18 0.0 0.0 0.00 0.00 0.00 88 1023.7
20260501211517 17 0.0 0.0 0.00 0.00 0.00 88 1023.5
20260501210519 18 270 1.6 3.2 0.00 0.00 0.00 87 1023.6
20260501205519 18 270 1.6 4.8 0.00 0.00 0.00 87 1023.6
20260501204519 18 0.0 3.2 0.00 0.00 0.00 87 1023.6